[Date Prev][Date Next][Thread Prev][Thread Next] - [Date Index][Thread Index][Author Index]

MIR Keps 1-8 UTC



MIR
1 16609U 86017A   99008.17603491  .00028536  00000-0  23247-3 0  1033
2 16609  51.6587  83.1143 0010065 330.8421  29.2034 15.70344953736231

----
Via the sarex mailing list at AMSAT.ORG courtesy of AMSAT-NA.
To unsubscribe, send "unsubscribe sarex" to Majordomo@amsat.org



AMSAT Top AMSAT Home